Theta_e
307 307 306 306 306 309 310 310 311 311 311 311 311 311 311 313 315 318 318 317 317 314 314 318 321 321 322 323 322 322 329 329 329 329 330 327 332 334 326 325 324 324 326 338 349
307 307 306 306 309 310 310 311 311 311 311 311 311 311 313 315 322 318 315 315 314 314 318 320 321 322 323 323 323 326 329 328 325 326 327 329 333 329 330 325 325 326 330 341 345
307 307 307 308 310 310 311 311 311 311 311 311 311 312 314 316 320 318 314 314 314 315 318 320 321 322 323 323 322 323 325 323 322 322 325 325 327 325 326 326 326 325 331 340 341
307 307 308 309 310 310 311 311 311 311 311 311 312 312 316 322 319 317 315 314 315 318 319 320 322 322 323 323 322 322 322 322 321 321 322 323 323 323 323 322 320 326 333 340 340
307 308 308 309 310 310 311 311 311 312 312 312 312 312 319 320 318 317 316 315 319 318 319 320 322 322 322 322 322 322 322 320 320 320 321 321 321 321 323 323 320 331 337 338 338
308 308 308 309 309 310 311 311 312 312 312 312 312 313 320 318 318 319 319 317 317 318 319 320 321 322 322 322 322 321 321 320 320 320 320 320 321 322 325 323 321 329 335 336 336
308 308 308 310 311 311 312 312 312 312 312 312 312 315 321 318 319 319 319 318 317 318 320 319 319 322 322 321 320 321 321 321 321 320 320 321 321 325 325 321 323 328 333 335 335
309 310 311 312 312 312 313 314 313 313 312 312 313 320 320 319 318 318 318 318 318 318 318 318 319 322 323 321 321 321 321 322 322 320 320 320 323 325 326 325 324 327 331 333 332
309 311 312 312 313 315 315 317 317 315 314 314 317 319 320 319 319 318 317 318 318 319 318 317 320 322 322 322 322 322 322 322 322 321 321 321 323 326 326 326 323 327 330 331 332
310 311 312 314 315 316 318 318 317 318 317 316 316 322 320 320 319 319 318 317 320 320 321 321 321 321 322 322 321 322 321 322 324 323 322 322 326 327 327 324 324 326 329 332 331
311 311 313 315 317 318 318 319 323 323 322 322 322 321 320 320 319 319 318 319 320 322 322 322 320 318 320 321 321 321 322 323 323 322 325 326 327 328 327 327 327 329 331 331 331
313 312 314 314 319 320 321 323 322 321 323 321 320 320 320 320 321 320 319 320 321 321 322 322 322 321 321 321 321 322 323 324 323 323 324 326 326 327 328 328 329 331 331 331 331
314 312 313 316 320 321 322 320 319 320 325 323 321 320 321 321 320 320 320 320 321 321 321 322 322 320 321 321 322 323 323 323 323 322 324 325 327 328 328 329 330 330 331 331 331
314 313 312 317 321 322 323 319 320 320 330 326 322 322 321 320 320 319 319 320 321 322 322 322 320 321 322 322 322 324 321 321 322 324 325 324 322 329 329 330 330 331 331 331 331
316 313 312 319 322 323 320 319 319 323 330 324 321 319 320 320 320 320 320 322 321 323 323 323 321 321 322 322 321 324 321 322 323 325 325 324 324 330 329 330 331 331 330 329 327
320 313 311 318 319 318 319 320 324 335 329 324 320 320 319 320 319 320 321 323 322 324 323 323 322 322 323 321 321 321 323 325 326 325 326 324 322 325 328 328 330 330 328 326 324
321 313 314 318 323 321 321 324 330 332 326 323 323 323 320 320 320 320 321 323 324 325 326 324 324 322 322 323 322 324 326 327 327 327 326 323 322 322 324 324 327 328 327 324 323
319 322 321 319 320 321 323 326 326 328 326 324 324 323 323 325 324 324 323 324 324 323 324 326 327 324 323 323 325 324 324 325 326 325 324 323 322 326 322 322 324 325 325 324 323
321 324 322 320 318 321 324 323 327 327 324 325 325 325 325 325 325 325 326 326 325 326 325 326 327 323 321 322 322 325 325 323 325 326 325 323 323 322 322 323 323 323 323 323 322
324 326 322 319 318 325 324 325 325 323 323 324 327 326 327 326 326 326 326 326 325 323 324 326 327 323 322 321 320 323 322 326 326 328 325 322 322 321 323 323 323 323 322 323 322
324 327 321 319 321 327 327 327 325 322 323 325 326 326 326 325 324 324 325 325 324 324 324 325 327 326 322 323 325 324 323 322 322 322 323 322 322 322 324 322 321 320 321 322 322
324 324 320 319 324 325 326 324 317 322 322 323 324 325 325 324 325 324 326 327 323 323 326 326 329 330 325 319 319 321 322 322 324 325 323 324 324 321 321 319 321 321 320 320 319
321 323 320 322 324 324 324 322 321 323 323 323 324 323 323 324 325 324 326 322 321 324 326 325 329 331 327 323 321 322 321 321 320 321 321 323 322 319 320 320 320 320 320 319 319
320 321 320 321 321 324 323 323 322 321 321 322 323 322 323 323 324 324 325 322 321 322 318 322 327 326 328 326 322 322 320 320 321 326 323 320 318 318 320 320 320 320 319 318 317
319 322 319 320 321 321 322 321 321 321 321 321 322 322 322 324 324 324 324 324 321 320 323 326 328 325 324 321 320 320 319 319 321 321 322 319 318 320 320 320 319 318 317 316 316
320 319 319 319 319 321 319 322 322 321 321 321 322 322 323 324 324 324 323 323 324 323 324 324 328 324 324 321 320 319 318 320 320 319 319 319 320 321 320 319 318 317 316 316 315
315 316 319 314 320 320 320 321 321 322 320 319 320 323 323 322 322 322 322 322 322 323 325 325 326 325 325 318 318 322 321 319 318 319 321 322 322 320 319 317 317 316 316 316 315
Wind_Speed
2 2 2 2 4 5 4 3 3 3 3 4 5 7 10 11 3 3 4 3 1 2 2 3 6 5 6 4 3 3 7 9 7 8 9 11 10 4 3 7 4 2 7 13 17
3 2 3 4 5 4 3 3 3 3 4 5 7 10 13 6 4 8 3 0 2 3 4 5 7 9 6 4 3 8 10 5 4 2 5 13 11 9 8 8 5 7 11 14 15
3 4 4 5 4 3 2 3 3 4 5 6 9 11 11 3 6 6 3 2 3 3 3 3 4 8 6 5 4 5 9 8 6 2 6 12 8 5 9 9 6 8 13 14 13
4 4 4 4 2 1 2 3 4 5 6 7 9 12 5 3 1 3 3 3 4 2 2 3 6 9 7 7 3 7 5 2 6 4 5 8 7 5 5 9 7 8 12 12 12
3 3 3 2 1 1 3 4 5 6 7 8 9 12 2 7 7 1 3 3 2 2 3 1 4 5 7 6 6 5 9 8 6 4 4 5 8 7 5 10 5 8 9 11 11
3 2 1 1 1 3 4 5 6 7 7 8 9 10 5 6 3 0 3 2 2 2 3 5 4 3 5 5 4 5 8 9 4 7 5 8 9 5 8 10 4 9 9 10 13
2 1 0 2 3 5 6 7 7 7 8 8 9 7 6 6 2 3 3 2 1 3 3 4 4 7 5 10 5 8 9 9 3 4 7 9 11 4 6 4 7 11 10 11 13
2 1 2 3 5 7 8 9 8 7 7 7 8 4 3 3 3 3 3 4 1 1 4 3 3 2 2 7 7 8 6 11 7 7 5 8 13 7 6 3 10 12 11 12 13
2 2 3 4 6 9 12 12 8 6 5 6 3 6 7 2 4 1 3 3 2 2 0 0 4 1 6 11 9 9 12 10 7 4 5 11 7 5 6 4 10 13 13 13 11
3 2 3 4 8 10 4 3 3 1 2 4 5 5 4 4 2 3 2 3 3 3 6 6 6 9 10 9 10 6 9 6 6 5 5 7 3 4 6 5 9 12 13 12 12
3 1 1 4 6 8 4 2 4 5 5 5 4 3 2 3 1 3 1 4 4 6 7 5 9 12 16 8 6 5 5 8 6 3 2 1 1 4 4 2 7 10 12 13 11
4 1 2 4 2 6 5 3 4 4 2 1 4 6 4 4 3 4 2 4 4 1 5 9 3 4 1 5 7 7 7 4 4 3 6 4 3 1 3 1 5 10 12 13 12
6 2 2 2 1 2 6 5 6 3 4 3 1 2 1 4 1 4 5 1 2 2 3 7 8 5 7 8 8 3 5 3 5 4 5 6 11 7 3 5 5 9 11 13 13
6 1 2 1 3 1 1 9 6 7 5 4 5 3 5 2 3 2 3 4 3 2 2 4 5 6 7 5 6 7 2 2 3 6 8 6 8 10 8 8 10 11 12 12 10
7 2 2 1 2 2 6 10 2 4 3 3 5 2 2 3 2 4 2 2 3 4 5 6 5 6 7 3 3 6 2 4 6 11 8 12 7 9 9 10 12 13 14 11 10
8 4 3 1 1 3 9 2 4 6 3 4 2 2 7 4 3 2 2 1 1 2 2 5 1 3 5 3 1 6 6 9 9 8 11 3 5 9 9 13 13 14 14 12 10
7 6 5 4 4 9 6 4 5 4 3 4 1 2 2 2 3 2 2 5 6 4 5 2 3 4 2 6 5 7 8 8 7 7 5 5 6 7 1 1 11 15 14 11 7
4 5 5 7 7 7 5 5 5 2 1 2 1 2 2 4 3 2 3 7 2 7 8 5 5 3 2 4 6 4 5 6 10 10 10 9 6 4 4 5 1 4 11 8 7
2 1 3 12 7 6 6 5 2 1 1 2 4 5 4 3 3 3 2 3 2 3 7 4 3 5 4 1 4 5 5 6 9 11 9 6 3 8 6 6 4 4 3 7 7
1 3 6 14 7 6 5 3 2 1 3 2 3 3 3 1 4 3 1 2 0 2 3 1 8 4 5 2 4 5 3 6 5 6 9 3 4 5 6 2 4 5 4 6 5
2 4 8 10 3 4 3 3 3 3 3 3 1 2 1 2 3 3 1 3 3 2 2 3 4 6 5 2 6 4 5 3 5 5 8 9 2 7 7 6 9 10 8 7 5
5 3 11 6 4 1 1 2 1 0 1 1 1 1 2 1 4 4 3 4 5 4 3 2 4 6 4 2 2 3 3 3 4 4 4 6 7 7 6 8 7 6 3 5 8
5 3 6 6 3 2 2 2 1 1 1 1 3 2 1 2 4 3 1 3 5 3 3 1 3 6 7 6 4 6 3 2 3 4 10 9 3 3 4 8 6 8 9 8 10
4 2 3 4 2 3 2 1 2 1 1 2 2 4 5 5 3 2 2 2 2 2 4 4 4 10 10 9 4 5 6 6 6 5 10 9 12 9 11 6 5 7 10 13 14
4 3 3 2 4 5 3 2 4 3 2 2 3 8 6 4 5 5 2 3 4 3 1 3 8 5 7 6 8 11 10 9 11 11 8 10 9 9 9 8 9 12 15 17 18
4 3 2 1 2 4 2 1 5 2 3 3 7 3 5 7 5 5 4 4 6 3 2 1 5 7 11 7 11 13 11 9 10 10 9 11 11 6 7 7 13 16 20 19 18
2 0 4 3 1 4 1 2 2 4 2 3 7 6 8 2 3 4 3 1 2 4 2 3 3 5 10 2 8 10 5 4 3 4 7 8 10 10 10 14 16 20 17 15 19
Wind_Direction
74 58 68 99 115 119 104 73 57 43 20 357 343 334 328 323 312 172 134 81 176 283 286 228 212 218 211 187 233 262 245 210 189 224 146 160 168 153 48 141 127 61 54 110 134
71 69 92 112 118 112 92 62 42 23 2 350 343 338 335 329 218 106 71 104 290 308 251 222 184 186 181 181 194 246 245 243 46 276 197 165 189 149 174 158 141 136 112 127 136
82 90 109 118 117 101 64 31 13 358 348 346 344 343 338 315 191 79 359 340 324 312 270 235 196 216 179 205 156 179 256 108 141 157 187 150 141 180 211 192 153 164 139 139 134
83 101 118 125 119 79 12 350 344 340 340 342 341 342 330 247 167 82 340 336 336 302 250 188 198 192 181 179 158 173 100 116 107 122 167 178 132 108 33 29 0 31 122 139 139
84 110 133 144 153 322 326 326 325 325 330 333 338 342 278 205 107 58 339 346 311 312 18 31 169 185 184 145 157 166 123 100 113 138 145 145 187 134 58 360 11 114 141 141 131
74 103 153 207 272 296 304 307 310 312 319 325 336 342 250 172 119 310 317 278 278 302 39 26 43 7 121 131 256 133 127 121 120 130 143 172 134 202 31 340 198 158 143 149 149
61 73 280 287 298 302 300 298 297 301 309 317 332 341 255 80 177 290 276 334 17 335 350 20 8 258 163 126 133 139 158 151 127 138 130 137 161 100 0 328 181 171 161 153 154
20 346 313 310 309 305 302 294 290 293 299 307 319 299 67 135 238 250 240 211 210 286 318 320 308 100 294 119 156 191 232 209 108 195 150 215 171 101 2 297 194 183 171 164 148
322 299 305 313 317 314 304 287 272 275 288 302 294 285 112 150 181 50 253 224 276 206 252 242 259 283 174 204 194 199 239 217 132 168 176 218 132 45 357 277 219 190 181 165 150
325 292 300 328 330 330 348 81 148 216 287 279 260 238 154 74 5 310 229 251 246 207 184 217 220 220 223 227 247 181 214 207 181 107 211 207 141 37 2 283 209 195 186 165 169
356 280 289 344 357 15 148 248 211 182 218 336 13 342 101 346 236 177 216 222 216 222 236 197 229 216 222 233 325 249 238 178 109 91 230 322 278 20 18 118 181 188 173 182 161
9 258 283 347 40 45 48 50 31 349 262 191 273 279 275 306 225 116 254 256 240 240 189 205 212 69 85 201 198 203 197 161 130 122 273 211 238 63 50 111 184 179 179 170 164
4 249 247 335 145 52 57 46 323 229 252 128 203 248 114 230 45 69 308 301 327 220 230 304 94 141 183 169 180 201 275 164 322 157 238 229 225 203 131 146 166 181 178 178 179
11 305 209 289 186 340 76 336 312 197 229 113 154 128 190 250 154 358 349 319 192 33 350 53 123 178 190 175 273 214 127 228 224 248 292 202 289 180 176 174 184 179 184 177 161
18 33 150 104 5 327 338 330 153 219 199 116 111 85 183 268 72 124 10 270 26 49 263 87 162 186 229 30 276 47 171 265 277 274 296 204 247 117 173 202 194 190 188 173 181
25 50 114 67 99 3 332 286 224 230 128 141 148 169 189 181 153 128 203 62 14 297 20 78 89 298 17 104 331 138 227 237 253 261 248 105 268 186 177 224 192 193 190 188 190
38 69 87 72 353 328 323 221 234 282 151 130 132 284 222 124 179 317 253 221 282 271 185 178 121 120 261 204 180 230 258 285 256 213 289 107 265 292 260 225 202 194 193 193 198
52 101 31 28 332 326 280 233 249 87 67 107 360 127 197 341 140 302 256 251 173 265 279 271 196 189 18 325 342 328 318 295 303 303 314 159 258 91 26 71 24 287 188 186 213
153 344 30 340 335 316 261 233 48 81 347 312 192 234 149 132 302 275 334 326 6 312 270 263 217 126 55 284 303 117 261 15 287 253 266 269 115 164 128 123 132 125 178 214 225
331 230 27 340 330 281 250 46 134 44 326 249 263 296 258 10 276 284 246 50 26 351 288 353 266 200 131 244 92 307 28 258 233 289 300 266 250 317 97 95 145 192 239 232 245
318 237 11 346 307 247 266 87 140 69 327 312 234 235 333 335 314 311 349 98 7 1 270 271 255 143 191 230 334 223 238 239 301 287 289 299 17 52 54 37 355 333 353 343 295
315 240 358 347 244 304 146 34 300 356 358 172 247 281 279 324 301 290 298 3 4 313 279 47 296 267 344 38 274 292 312 280 276 266 276 303 281 70 38 355 342 344 343 340 319
346 332 350 325 268 136 122 156 332 301 38 272 203 256 226 271 287 266 294 53 3 309 331 108 224 257 195 184 181 249 188 279 288 274 271 283 297 103 18 340 342 329 325 307 307
303 275 65 57 47 338 351 183 221 73 229 286 276 228 218 238 223 245 210 80 19 31 12 290 263 269 271 349 343 243 230 252 262 274 274 278 306 348 5 345 313 304 320 314 314
355 62 6 25 62 347 306 310 267 254 238 257 224 249 248 255 246 250 233 186 176 143 209 304 265 273 280 287 281 281 284 250 250 258 273 294 304 332 352 342 334 321 317 323 321
333 326 164 44 308 287 145 193 285 285 272 213 253 205 240 260 276 297 292 265 283 162 245 203 257 278 273 261 277 281 272 257 260 273 272 280 283 39 339 308 321 326 328 321 333
45 99 285 120 253 279 20 324 339 321 225 286 296 249 231 61 359 28 35 57 9 303 243 260 251 267 284 336 291 269 276 235 236 251 299 297 358 339 332 336 329 321 318 340 332